Airfield :
LOGIN :

Register | Disclaimer

   EN    FR    IT 

 










Legend :    VFR   Marginal VFR   IFR   Intensive IFR   Very Intensive IFR
Visi :
Ceiling :
>= 8 km
>= 3000ft
5 to 8 km
1000 to 3000 ft
1500m to 5 km
500 to 1000 ft
800 to 1500m
200 to 500 ft
< 800m
< 200 ft
Symbols :   Thunderstorms  Fog  Heavy snow  Heavy precipitations  Wind > 20 kt
SIGMETs :     Misc.  Thunderstorms  Icing  Turbulence  Mountain Waves  Volcanic Ashes







- Airport Elevation : 26 ft
- IATA code : BIA
- Download approach charts


LFKB - Bastia

CURRENT METAR :
  • 250630Z 22004KT 9999 FEW010 BKN250 18/14 Q1015 NOSIG

EXPIRED METARs :
  • 250600Z 22004KT 9999 FEW083 BKN250 17/14 Q1014 NOSIG
  • 250530Z 21004KT 9999 FEW011 BKN250 16/14 Q1014 NOSIG
  • 250500Z 22003KT 9999 FEW011 BKN250 15/13 Q1014 NOSIG
  • 250430Z VRB03KT 9999 FEW011 BKN250 15/14 Q1014 NOSIG
  • 250400Z VRB03KT 9999 FEW011 BKN250 15/14 Q1014 NOSIG

TAF TAF LFKB
Valid from the 25 at 03:00 until the 26 at 03:00 UTC


250200Z 2503/2603 24006KT CAVOK
BECMG 2507/2509 10008KT 9999 SCT030 BKN250
BECMG 2518/2520 24004KT CAVOK TX24/2512Z TN15/2503Z
ATIS : +33 4 95 59 19 40
No reported NOTAMs for that airfield.



MET'MAP, your aeronautical weather chart ! - Copyright ORBIFLY December 2007 - Disclaimer

ORBIFLY MET'MAP TEAM :

Programming & Development : Alexandra Zaïnal
Concept & Development : Baudouin d'Aumeries
Co-Development & Prog : Marc-Olivier Méhu
Technical & hardware support : Manuel Goepfert

Contact : metmap@orbifly.com




SOURCES & CREDITS :

   NOAA